Hourly Data Report for January 06, 2018

All times are specified in Local Standard Time (LST). Add 1 hour to adjust for Daylight Saving Time where and when it is observed.

BARRIE-ORO
ONTARIO

44°29'00.000" N
79°33'00.000" W
289.00 m
6117700
71314
XBI

Download Data

Hourly Data (January 2018)
Hourly Data Report for January 6, 2018
Temp Definition
°C
Dew Point Temp Definition
°C
Rel Hum Definition
%
Wind Dir Definition
10's deg

Wind Spd Definition
km/h
Visibility Definition
km
Stn Press Definition
kPa
Hmdx Definition


Wind Chill Definition


Weather Definition


TIME
00:00 -25.4 -30.3 64 33 19   98.60   -37 LegendNANA
01:00 -26.0 -30.4 66 32 18   98.62   -37 LegendNANA
02:00 -26.3 -30.9 65 34 20   98.69   -38 LegendNANA
03:00 -26.7 -31.3 65 34 24   98.77   -40 LegendNANA
04:00 -27.1 -31.7 65 34 24   98.82   -40 LegendNANA
05:00 -27.2 -31.8 65 33 24   98.88   -41 LegendNANA
06:00 -27.5 -31.9 66 33 21   98.96   -40 LegendNANA
07:00 -27.7 -32.1 66 33 20   99.02   -40 LegendNANA
08:00 -28.2 -32.5 66 33 20   99.10   -41 LegendNANA
09:00 -27.6 -32.3 64 33 24   99.19   -41 LegendNANA
10:00 -26.2 -31.6 61 33 19   99.25   -38 LegendNANA
11:00 -25.0 -31.3 56 33 19   99.30   -37 LegendNANA
12:00 -23.6 -31.0 51 32 14   99.32   -33 LegendNANA
13:00 -22.1 -30.0 49 31 17   99.33   -32 LegendNANA
14:00 -21.2 -29.3 48 29 21   99.36   -32 LegendNANA
15:00 -20.0 -27.4 52 32 19   99.42   -30 LegendNANA
16:00 -20.0 -26.5 56 32 21   99.50   -31 LegendNANA
17:00 -21.3 -25.6 68 31 12   99.56   -30 LegendNANA
18:00 -22.9 -26.3 74 36 9   99.59   -30 LegendNANA
19:00 -23.3 -26.3 76 33 6   99.61   -29 LegendNANA
20:00 -25.0 -27.8 77 25 2   99.65   -27 LegendNANA
21:00 -25.4 -28.3 77   0   99.67     LegendNANA
22:00 -23.5 -26.1 79 33 1   99.67   -24 LegendNANA
23:00 -22.6 -25.3 79   0   99.65     LegendNANA

Notes on Data Quality.

Legend

  • E = Estimated
  • M = Missing
  • NA = Not Available
  • ‡ = Partner data that is not subject to review by the National Climate Archives
Date modified: